Location: Newark
(41.2758°N, 92.6808°W)
Time: 11:42:20
(UTC+00:00)

N. Korean satellite - Pass Details

Date: 24 September 2019
Orbit: 455 x 508 km, 97.2° (Epoch: 13 October)

Event Time Altitude Azimuth Distance (km) Brightness Sun altitude
Rises 11:09:15 0° 33° (NNE) 2,478 10.8 -10.3°
Reaches altitude 10° 11:12:06 10° 59° (ENE) 1,601 10.4 -9.8°
Maximum altitude 11:13:58 14° 93° (E) 1,376 10.3 -9.5°
Drops below altitude 10° 11:15:49 10° 126° (SE) 1,600 9.9 -9.1°
Sets 11:18:39 0° 152° (SSE) 2,475 10.4 -8.6°
